Weather in Rozhki

Russia / Kirov Oblast     56°41′00″N   50°31′16″E
temp.,
°C
wind,
m/s
gust,
m/s
humid.,
%
clouds,
%
prec.,
mm/h
press.,
hPa
HPBL,
m
2 march, tue
tue200:00−12ssw61194100 0.0 1011339
03:00−10ssw71494100 0.9 1006492
06:00−6sw81593100 1.1 1000603
09:00−2sw71395100 2.4 998635
12:000wsw4810098 0.7 996402
15:000w7129999 1.5 995736
18:00−2wsw4119599 0.5 995356
21:00−1wnw71296100 1.9 997639
3 march, wed
wed300:00−2wnw499596 0.3 997346
03:00−5w489692 0.4 999173
06:00−7w349687 0.1 99869
09:00−4wnw469693 0.6 999414
12:00−3wnw5894100 0.6 1000590
15:00−4nw71092100 1.1 1001746
18:00−6wnw51189100 0.1 1001686
21:00−9w41293100 0.1 1003288
4 march, thu
thu400:00−9w5119498 0.1 1001320
03:00−9sw599599 0.2 1000266
06:00−7wsw51194100 0.6 998434
09:00−5wsw5109296 0.6 997559
12:00−2sw71089100 0.2 995832
15:00−2ssw71295100 0.4 992823
18:00−1sw81594100 1.0 990874
21:00−3w81584100 1.2 992627
5 march, fri
fri500:00−7wnw6129281 0.0 994392
03:00−12wnw369688 0.1 997103
06:00−14nw3393100 0.0 99956
09:00−12nnw3689100 0.0 1001250
12:00−10nw46887 0.0 1002398
15:00−10wnw478811 0.0 1005515
18:00−15wnw369437 0.0 100787
21:00−16wnw349641 0.0 101084
6 march, sat
sat600:00−17w349689 0.0 101257
03:00−18w339768 0.0 101332
06:00−19wsw239733 0.0 101321
09:00−14ssw239343 0.0 1013142
12:00−10ssw359172 0.0 1012290
15:00−9s369384 0.1 1010366
18:00−12ssw359699 0.3 1009112
21:00−13sw259697 0.4 1009131